Time,TemperatureF,DewpointF,PressureIn,WindDirection,WindDirectionDegrees,WindSpeedMPH,WindSpeedGustMPH,Humidity,HourlyPrecipIn,Conditions,Clouds,dailyrainin,SoftwareType,DateUTC
2013-08-27 00:00:00,81.2,58.5,29.73,SSW,195,9.0,14.0,46,0.00,,,0.00,VWS V14.01,2013-08-27 05:00:00,
2013-08-27 00:01:00,81.2,58.5,29.73,SSW,202,10.0,14.0,46,0.00,,,0.00,VWS V14.01,2013-08-27 05:01:00,
2013-08-27 00:06:00,81.1,57.8,29.73,South,189,11.0,14.0,45,0.00,,,0.00,VWS V14.01,2013-08-27 05:06:00,
2013-08-27 00:11:00,81.1,58.4,29.73,SW,219,14.0,14.0,46,0.00,,,0.00,VWS V14.01,2013-08-27 05:11:00,
2013-08-27 00:15:00,80.7,59.2,29.73,South,184,12.0,17.0,48,0.00,,,0.00,VWS V14.01,2013-08-27 05:15:00,
2013-08-27 00:16:00,80.7,59.2,29.73,South,189,12.0,15.0,48,0.00,,,0.00,VWS V14.01,2013-08-27 05:16:00,
2013-08-27 00:21:00,80.7,59.2,29.73,SSW,193,11.0,16.0,48,0.00,,,0.00,VWS V14.01,2013-08-27 05:21:00,
2013-08-27 00:26:00,80.5,58.4,29.73,SW,215,14.0,16.0,47,0.00,,,0.00,VWS V14.01,2013-08-27 05:26:00,
2013-08-27 00:30:00,80.1,59.2,29.73,South,191,8.0,16.0,49,0.00,,,0.00,VWS V14.01,2013-08-27 05:30:00,
2013-08-27 00:31:00,80.3,59.4,29.73,South,188,10.0,16.0,49,0.00,,,0.00,VWS V14.01,2013-08-27 05:31:00,
2013-08-27 00:36:00,80.1,60.4,29.73,SSW,195,11.0,16.0,51,0.00,,,0.00,VWS V14.01,2013-08-27 05:36:00,
2013-08-27 00:41:00,79.9,59.6,29.73,SSW,196,12.0,16.0,50,0.00,,,0.00,VWS V14.01,2013-08-27 05:41:00,
2013-08-27 00:45:00,79.6,59.9,29.73,SSW,212,9.0,16.0,51,0.00,,,0.00,VWS V14.01,2013-08-27 05:45:00,
2013-08-27 00:46:00,79.8,60.1,29.73,SSW,200,9.0,16.0,51,0.00,,,0.00,VWS V14.01,2013-08-27 05:46:00,
2013-08-27 00:51:00,79.4,60.3,29.73,SSW,203,12.0,12.0,52,0.00,,,0.00,VWS V14.01,2013-08-27 05:51:00,
2013-08-27 00:56:00,79.2,60.1,29.73,SW,234,10.0,14.0,52,0.00,,,0.00,VWS V14.01,2013-08-27 05:56:00,
2013-08-27 01:00:00,79.0,59.9,29.73,SSW,206,10.0,14.0,52,0.00,,,0.00,VWS V14.01,2013-08-27 06:00:00,
2013-08-27 01:01:00,79.0,59.9,29.73,SSW,202,10.0,14.0,52,0.00,,,0.00,VWS V14.01,2013-08-27 06:01:00,
2013-08-27 01:06:00,79.0,60.4,29.73,SSW,203,12.0,13.0,53,0.00,,,0.00,VWS V14.01,2013-08-27 06:06:00,
2013-08-27 01:11:00,78.8,60.2,29.73,SSW,202,12.0,14.0,53,0.00,,,0.00,VWS V14.01,2013-08-27 06:11:00,
2013-08-27 01:15:00,78.6,60.6,29.72,SW,216,10.0,14.0,54,0.00,,,0.00,VWS V14.01,2013-08-27 06:15:00,
2013-08-27 01:16:00,78.6,60.6,29.73,SSW,199,9.0,14.0,54,0.00,,,0.00,VWS V14.01,2013-08-27 06:16:00,
2013-08-27 01:21:00,78.5,60.5,29.72,SW,222,10.0,13.0,54,0.00,,,0.00,VWS V14.01,2013-08-27 06:21:00,
2013-08-27 01:26:00,78.3,60.3,29.72,SSW,208,9.0,13.0,54,0.00,,,0.00,VWS V14.01,2013-08-27 06:26:00,
2013-08-27 01:30:00,78.1,60.6,29.72,SSW,210,10.0,13.0,55,0.00,,,0.00,VWS V14.01,2013-08-27 06:30:00,
2013-08-27 01:31:00,78.1,60.6,29.72,SSW,205,9.0,13.0,55,0.00,,,0.00,VWS V14.01,2013-08-27 06:31:00,
2013-08-27 01:36:00,78.1,61.1,29.72,SSW,208,8.0,12.0,56,0.00,,,0.00,VWS V14.01,2013-08-27 06:36:00,
2013-08-27 01:41:00,77.9,61.0,29.72,SSW,192,11.0,12.0,56,0.00,,,0.00,VWS V14.01,2013-08-27 06:41:00,
2013-08-27 01:45:00,77.7,60.8,29.72,SW,219,7.0,12.0,56,0.00,,,0.00,VWS V14.01,2013-08-27 06:45:00,
2013-08-27 01:46:00,77.9,60.5,29.72,SSW,200,10.0,12.0,55,0.00,,,0.00,VWS V14.01,2013-08-27 06:46:00,
2013-08-27 01:51:00,77.7,60.3,29.72,SSW,196,7.0,13.0,55,0.00,,,0.00,VWS V14.01,2013-08-27 06:51:00,
2013-08-27 01:56:00,77.6,60.7,29.72,SSW,198,10.0,13.0,56,0.00,,,0.00,VWS V14.01,2013-08-27 06:56:00,
2013-08-27 02:00:00,77.4,61.0,29.73,SSW,212,7.0,13.0,57,0.00,,,0.00,VWS V14.01,2013-08-27 07:00:00,
2013-08-27 02:01:00,77.4,60.5,29.72,SSW,210,7.0,13.0,56,0.00,,,0.00,VWS V14.01,2013-08-27 07:01:00,
2013-08-27 02:06:00,77.2,60.8,29.73,SSW,213,9.0,12.0,57,0.00,,,0.00,VWS V14.01,2013-08-27 07:06:00,
2013-08-27 02:11:00,77.0,60.6,29.73,SSW,210,7.0,12.0,57,0.00,,,0.00,VWS V14.01,2013-08-27 07:11:00,
2013-08-27 02:15:00,76.8,60.9,29.72,SSW,208,7.0,12.0,58,0.00,,,0.00,VWS V14.01,2013-08-27 07:15:00,
2013-08-27 02:16:00,76.8,60.4,29.73,SSW,199,8.0,12.0,57,0.00,,,0.00,VWS V14.01,2013-08-27 07:16:00,
2013-08-27 02:21:00,76.7,60.8,29.72,SSW,199,7.0,10.0,58,0.00,,,0.00,VWS V14.01,2013-08-27 07:21:00,
2013-08-27 02:26:00,76.5,60.6,29.72,SSW,205,8.0,10.0,58,0.00,,,0.00,VWS V14.01,2013-08-27 07:26:00,
2013-08-27 02:30:00,76.5,61.6,29.72,SSW,210,10.0,11.0,60,0.00,,,0.00,VWS V14.01,2013-08-27 07:30:00,
2013-08-27 02:31:00,76.5,60.6,29.72,SSW,209,7.0,11.0,58,0.00,,,0.00,VWS V14.01,2013-08-27 07:31:00,
2013-08-27 02:36:00,76.3,60.5,29.72,SSW,209,7.0,12.0,58,0.00,,,0.00,VWS V14.01,2013-08-27 07:36:00,
2013-08-27 02:41:00,76.3,60.9,29.72,SSW,200,7.0,12.0,59,0.00,,,0.00,VWS V14.01,2013-08-27 07:41:00,
2013-08-27 02:45:00,76.3,60.9,29.72,SSW,206,7.0,12.0,59,0.00,,,0.00,VWS V14.01,2013-08-27 07:45:00,
2013-08-27 02:46:00,76.3,60.5,29.72,SSW,206,8.0,12.0,58,0.00,,,0.00,VWS V14.01,2013-08-27 07:46:00,
2013-08-27 02:51:00,76.3,60.9,29.72,SSW,213,7.0,11.0,59,0.00,,,0.00,VWS V14.01,2013-08-27 07:51:00,
2013-08-27 02:56:00,76.1,60.8,29.72,SSW,206,8.0,12.0,59,0.00,,,0.00,VWS V14.01,2013-08-27 07:56:00,
2013-08-27 03:00:00,76.0,60.7,29.72,SSW,200,10.0,12.0,59,0.00,,,0.00,VWS V14.01,2013-08-27 08:00:00,
2013-08-27 03:01:00,76.0,60.2,29.72,SSW,200,9.0,12.0,58,0.00,,,0.00,VWS V14.01,2013-08-27 08:01:00,
2013-08-27 03:06:00,76.0,60.7,29.72,SW,217,10.0,11.0,59,0.00,,,0.00,VWS V14.01,2013-08-27 08:06:00,
2013-08-27 03:11:00,75.8,60.5,29.72,SSW,206,6.0,11.0,59,0.00,,,0.00,VWS V14.01,2013-08-27 08:11:00,
2013-08-27 03:15:00,75.8,60.0,29.72,SSW,208,7.0,12.0,58,0.00,,,0.00,VWS V14.01,2013-08-27 08:15:00,
2013-08-27 03:16:00,75.8,60.9,29.72,SSW,205,9.0,11.0,60,0.00,,,0.00,VWS V14.01,2013-08-27 08:16:00,
2013-08-27 03:21:00,75.6,60.8,29.72,SW,217,7.0,11.0,60,0.00,,,0.00,VWS V14.01,2013-08-27 08:21:00,
2013-08-27 03:26:00,75.4,60.6,29.72,SW,215,11.0,12.0,60,0.00,,,0.00,VWS V14.01,2013-08-27 08:26:00,
2013-08-27 03:30:00,75.4,60.6,29.72,SW,224,7.0,12.0,60,0.00,,,0.00,VWS V14.01,2013-08-27 08:30:00,
2013-08-27 03:31:00,75.4,60.6,29.72,SW,215,8.0,12.0,60,0.00,,,0.00,VWS V14.01,2013-08-27 08:31:00,
2013-08-27 03:36:00,75.3,60.9,29.72,SW,217,11.0,11.0,61,0.00,,,0.00,VWS V14.01,2013-08-27 08:36:00,
2013-08-27 03:41:00,75.3,60.5,29.72,SSW,213,8.0,12.0,60,0.00,,,0.00,VWS V14.01,2013-08-27 08:41:00,
2013-08-27 03:45:00,75.3,60.5,29.72,SSW,203,12.0,12.0,60,0.00,,,0.00,VWS V14.01,2013-08-27 08:45:00,
2013-08-27 03:46:00,75.3,60.9,29.72,SW,219,8.0,12.0,61,0.00,,,0.00,VWS V14.01,2013-08-27 08:46:00,
2013-08-27 03:51:00,75.1,59.8,29.72,SSW,205,6.0,12.0,59,0.00,,,0.00,VWS V14.01,2013-08-27 08:51:00,
2013-08-27 03:56:00,74.9,59.6,29.72,SSW,209,7.0,12.0,59,0.00,,,0.00,VWS V14.01,2013-08-27 08:56:00,
2013-08-27 04:00:00,74.7,60.4,29.72,SSW,205,8.0,12.0,61,0.00,,,0.00,VWS V14.01,2013-08-27 09:00:00,
2013-08-27 04:01:00,74.7,60.8,29.72,SSW,200,8.0,12.0,62,0.00,,,0.00,VWS V14.01,2013-08-27 09:01:00,
2013-08-27 04:06:00,74.6,60.3,29.72,SSW,200,8.0,10.0,61,0.00,,,0.00,VWS V14.01,2013-08-27 09:06:00,
2013-08-27 04:11:00,74.2,61.2,29.72,SSW,199,8.0,10.0,64,0.00,,,0.00,VWS V14.01,2013-08-27 09:11:00,
2013-08-27 04:15:00,74.0,60.6,29.72,SSW,195,7.0,12.0,63,0.00,,,0.00,VWS V14.01,2013-08-27 09:15:00,
2013-08-27 04:16:00,74.0,60.6,29.72,SSW,193,7.0,12.0,63,0.00,,,0.00,VWS V14.01,2013-08-27 09:16:00,
2013-08-27 04:21:00,73.9,60.5,29.72,SSW,195,7.0,11.0,63,0.00,,,0.00,VWS V14.01,2013-08-27 09:21:00,
2013-08-27 04:26:00,73.7,59.9,29.72,SSW,200,7.0,11.0,62,0.00,,,0.00,VWS V14.01,2013-08-27 09:26:00,
2013-08-27 04:30:00,73.7,59.9,29.72,SSW,198,8.0,11.0,62,0.00,,,0.00,VWS V14.01,2013-08-27 09:30:00,
2013-08-27 04:31:00,73.7,59.9,29.72,SSW,196,8.0,11.0,62,0.00,,,0.00,VWS V14.01,2013-08-27 09:31:00,
2013-08-27 04:36:00,73.7,60.3,29.72,South,188,8.0,10.0,63,0.00,,,0.00,VWS V14.01,2013-08-27 09:36:00,
2013-08-27 04:41:00,73.7,59.9,29.72,SSW,198,7.0,10.0,62,0.00,,,0.00,VWS V14.01,2013-08-27 09:41:00,
2013-08-27 04:45:00,73.5,60.6,29.72,SSW,199,5.0,10.0,64,0.00,,,0.00,VWS V14.01,2013-08-27 09:45:00,
2013-08-27 04:46:00,73.5,60.2,29.72,SSW,199,10.0,10.0,63,0.00,,,0.00,VWS V14.01,2013-08-27 09:46:00,
2013-08-27 04:51:00,73.3,60.8,29.72,SSW,199,10.0,10.0,65,0.00,,,0.00,VWS V14.01,2013-08-27 09:51:00,
2013-08-27 04:56:00,73.3,61.3,29.72,SW,215,7.0,10.0,66,0.00,,,0.00,VWS V14.01,2013-08-27 09:56:00,
2013-08-27 05:00:00,73.2,61.2,29.72,SSW,205,10.0,10.0,66,0.00,,,0.00,VWS V14.01,2013-08-27 10:00:00,
2013-08-27 05:01:00,73.2,59.9,29.72,SSW,205,7.0,10.0,63,0.00,,,0.00,VWS V14.01,2013-08-27 10:01:00,
2013-08-27 05:06:00,73.2,60.7,29.72,SSW,199,7.0,10.0,65,0.00,,,0.00,VWS V14.01,2013-08-27 10:06:00,
2013-08-27 05:11:00,73.0,61.0,29.72,SW,216,10.0,10.0,66,0.00,,,0.00,VWS V14.01,2013-08-27 10:11:00,
2013-08-27 05:15:00,73.0,60.1,29.72,SSW,212,6.0,10.0,64,0.00,,,0.00,VWS V14.01,2013-08-27 10:15:00,
2013-08-27 05:16:00,73.0,60.5,29.72,SSW,205,7.0,10.0,65,0.00,,,0.00,VWS V14.01,2013-08-27 10:16:00,
2013-08-27 05:21:00,73.0,60.5,29.72,SSW,202,7.0,10.0,65,0.00,,,0.00,VWS V14.01,2013-08-27 10:21:00,
2013-08-27 05:26:00,72.8,60.4,29.72,SW,222,7.0,11.0,65,0.00,,,0.00,VWS V14.01,2013-08-27 10:26:00,
2013-08-27 05:30:00,72.7,60.7,29.72,SSW,209,7.0,11.0,66,0.00,,,0.00,VWS V14.01,2013-08-27 10:30:00,
2013-08-27 05:31:00,72.7,61.1,29.72,SW,216,7.0,11.0,67,0.00,,,0.00,VWS V14.01,2013-08-27 10:31:00,
2013-08-27 05:36:00,72.7,60.7,29.72,SSW,206,6.0,10.0,66,0.00,,,0.00,VWS V14.01,2013-08-27 10:36:00,
2013-08-27 05:41:00,72.5,60.5,29.72,South,189,7.0,10.0,66,0.00,,,0.00,VWS V14.01,2013-08-27 10:41:00,
2013-08-27 05:45:00,72.5,60.9,29.72,South,186,5.0,10.0,67,0.00,,,0.00,VWS V14.01,2013-08-27 10:45:00,
2013-08-27 05:46:00,72.5,60.1,29.72,SSW,202,6.0,10.0,65,0.00,,,0.00,VWS V14.01,2013-08-27 10:46:00,
2013-08-27 05:51:00,72.5,60.5,29.72,SSW,202,7.0,11.0,66,0.00,,,0.00,VWS V14.01,2013-08-27 10:51:00,
2013-08-27 05:56:00,72.5,60.9,29.72,SSW,199,9.0,11.0,67,0.00,,,0.00,VWS V14.01,2013-08-27 10:56:00,
2013-08-27 06:00:00,72.3,59.9,29.72,SSW,195,6.0,11.0,65,0.00,,,0.00,VWS V14.01,2013-08-27 11:00:00,
2013-08-27 06:01:00,72.3,61.2,29.72,SSW,198,10.0,11.0,68,0.00,,,0.00,VWS V14.01,2013-08-27 11:01:00,
2013-08-27 06:06:00,72.3,60.7,29.72,SSW,192,10.0,10.0,67,0.00,,,0.00,VWS V14.01,2013-08-27 11:06:00,
2013-08-27 06:11:00,72.3,60.7,29.72,SSW,196,7.0,10.0,67,0.00,,,0.00,VWS V14.01,2013-08-27 11:11:00,
2013-08-27 06:15:00,72.1,61.0,29.72,SW,215,6.0,10.0,68,0.00,,,0.00,VWS V14.01,2013-08-27 11:15:00,
2013-08-27 06:16:00,72.1,60.5,29.72,SSW,196,5.0,10.0,67,0.00,,,0.00,VWS V14.01,2013-08-27 11:16:00,
2013-08-27 06:21:00,72.0,60.5,29.72,SSW,212,7.0,8.0,67,0.00,,,0.00,VWS V14.01,2013-08-27 11:21:00,
2013-08-27 06:26:00,72.0,60.9,29.72,SSW,210,6.0,8.0,68,0.00,,,0.00,VWS V14.01,2013-08-27 11:26:00,
2013-08-27 06:30:00,71.8,60.7,29.73,SSW,210,7.0,8.0,68,0.00,,,0.00,VWS V14.01,2013-08-27 11:30:00,
2013-08-27 06:31:00,71.8,61.5,29.72,SSW,210,7.0,8.0,70,0.00,,,0.00,VWS V14.01,2013-08-27 11:31:00,
2013-08-27 06:36:00,71.6,61.3,29.73,SSW,210,4.0,7.0,70,0.00,,,0.00,VWS V14.01,2013-08-27 11:36:00,
2013-08-27 06:41:00,71.5,61.2,29.73,SSW,200,5.0,7.0,70,0.00,,,0.00,VWS V14.01,2013-08-27 11:41:00,
2013-08-27 06:45:00,71.1,61.6,29.74,SSW,200,5.0,8.0,72,0.00,,,0.00,VWS V14.01,2013-08-27 11:45:00,
2013-08-27 06:46:00,71.3,61.0,29.73,SSW,200,6.0,7.0,70,0.00,,,0.00,VWS V14.01,2013-08-27 11:46:00,
2013-08-27 06:51:00,71.1,61.6,29.74,SSW,200,7.0,7.0,72,0.00,,,0.00,VWS V14.01,2013-08-27 11:51:00,
2013-08-27 06:57:00,70.9,61.0,29.74,SSW,200,5.0,7.0,71,0.00,,,0.00,VWS V14.01,2013-08-27 11:57:00,
2013-08-27 07:00:00,70.8,61.3,29.74,SSW,200,4.0,7.0,72,0.00,,,0.00,VWS V14.01,2013-08-27 12:00:00,
2013-08-27 07:02:00,70.8,60.9,29.74,SSW,200,5.0,7.0,71,0.00,,,0.00,VWS V14.01,2013-08-27 12:02:00,
2013-08-27 07:07:00,70.8,61.3,29.74,SSW,200,3.0,5.0,72,0.00,,,0.00,VWS V14.01,2013-08-27 12:07:00,
2013-08-27 07:12:00,70.8,61.3,29.74,SSW,200,1.0,5.0,72,0.00,,,0.00,VWS V14.01,2013-08-27 12:12:00,
2013-08-27 07:15:00,70.8,61.7,29.75,SSW,200,2.0,5.0,73,0.00,,,0.00,VWS V14.01,2013-08-27 12:15:00,
2013-08-27 07:17:00,70.8,61.3,29.74,SSW,200,3.0,5.0,72,0.00,,,0.00,VWS V14.01,2013-08-27 12:17:00,
2013-08-27 07:22:00,70.8,61.7,29.75,South,169,2.0,6.0,73,0.00,,,0.00,VWS V14.01,2013-08-27 12:22:00,
2013-08-27 07:27:00,70.9,61.4,29.75,South,169,6.0,6.0,72,0.00,,,0.00,VWS V14.01,2013-08-27 12:27:00,
2013-08-27 07:30:00,70.9,61.4,29.75,South,184,6.0,7.0,72,0.00,,,0.00,VWS V14.01,2013-08-27 12:30:00,
2013-08-27 07:32:00,70.9,61.4,29.75,South,184,5.0,7.0,72,0.00,,,0.00,VWS V14.01,2013-08-27 12:32:00,
2013-08-27 07:37:00,70.9,61.4,29.75,SSW,213,7.0,8.0,72,0.00,,,0.00,VWS V14.01,2013-08-27 12:37:00,
2013-08-27 07:42:00,70.9,61.8,29.75,SSW,202,9.0,10.0,73,0.00,,,0.00,VWS V14.01,2013-08-27 12:42:00,
2013-08-27 07:45:00,70.9,61.4,29.75,SW,220,6.0,10.0,72,0.00,,,0.00,VWS V14.01,2013-08-27 12:45:00,
2013-08-27 07:47:00,70.9,61.0,29.75,SW,215,7.0,10.0,71,0.00,,,0.00,VWS V14.01,2013-08-27 12:47:00,
2013-08-27 07:52:00,70.9,61.0,29.75,SSW,205,7.0,11.0,71,0.00,,,0.00,VWS V14.01,2013-08-27 12:52:00,
2013-08-27 07:57:00,71.1,61.2,29.75,SSW,199,7.0,11.0,71,0.00,,,0.00,VWS V14.01,2013-08-27 12:57:00,
2013-08-27 08:00:00,71.3,60.6,29.75,SSW,206,6.0,11.0,69,0.00,,,0.00,VWS V14.01,2013-08-27 13:00:00,
2013-08-27 08:02:00,71.3,61.4,29.75,SSW,203,6.0,11.0,71,0.00,,,0.00,VWS V14.01,2013-08-27 13:02:00,
2013-08-27 08:07:00,71.6,61.3,29.75,SSW,203,8.0,10.0,70,0.00,,,0.00,VWS V14.01,2013-08-27 13:07:00,
2013-08-27 08:11:00,72.0,61.3,29.75,SW,215,10.0,11.0,69,0.00,,,0.00,VWS V14.01,2013-08-27 13:11:00,
2013-08-27 08:15:00,72.0,61.7,29.76,SSW,196,10.0,11.0,70,0.00,,,0.00,VWS V14.01,2013-08-27 13:15:00,
2013-08-27 08:17:00,72.0,61.7,29.75,SSW,205,8.0,11.0,70,0.00,,,0.00,VWS V14.01,2013-08-27 13:17:00,
2013-08-27 08:21:00,72.1,61.8,29.76,SSW,208,10.0,11.0,70,0.00,,,0.00,VWS V14.01,2013-08-27 13:21:00,
2013-08-27 08:27:00,72.5,61.8,29.76,SW,219,8.0,11.0,69,0.00,,,0.00,VWS V14.01,2013-08-27 13:27:00,
2013-08-27 08:30:00,72.5,61.3,29.75,SSW,192,10.0,12.0,68,0.00,,,0.00,VWS V14.01,2013-08-27 13:30:00,
2013-08-27 08:32:00,72.5,61.8,29.76,SSW,210,10.0,12.0,69,0.00,,,0.00,VWS V14.01,2013-08-27 13:32:00,
2013-08-27 08:37:00,72.8,61.6,29.75,South,189,7.0,11.0,68,0.00,,,0.00,VWS V14.01,2013-08-27 13:37:00,
2013-08-27 08:42:00,73.0,61.8,29.75,SSW,210,10.0,11.0,68,0.00,,,0.00,VWS V14.01,2013-08-27 13:42:00,
2013-08-27 08:45:00,73.5,61.5,29.75,SW,230,11.0,12.0,66,0.00,,,0.00,VWS V14.01,2013-08-27 13:45:00,
2013-08-27 08:47:00,73.5,61.9,29.75,SSW,213,10.0,12.0,67,0.00,,,0.00,VWS V14.01,2013-08-27 13:47:00,
2013-08-27 08:52:00,73.9,61.0,29.75,SW,216,10.0,12.0,64,0.00,,,0.00,VWS V14.01,2013-08-27 13:52:00,
2013-08-27 08:57:00,74.2,61.7,29.75,SSW,212,7.0,12.0,65,0.00,,,0.00,VWS V14.01,2013-08-27 13:57:00,
2013-08-27 09:00:00,74.6,61.6,29.75,SSW,200,8.0,13.0,64,0.00,,,0.00,VWS V14.01,2013-08-27 14:00:00,
2013-08-27 09:02:00,74.6,61.6,29.75,SSW,196,12.0,13.0,64,0.00,,,0.00,VWS V14.01,2013-08-27 14:02:00,
2013-08-27 09:07:00,74.9,61.5,29.75,SSW,209,6.0,12.0,63,0.00,,,0.00,VWS V14.01,2013-08-27 14:07:00,
2013-08-27 09:12:00,75.4,60.6,29.75,SSW,193,11.0,12.0,60,0.00,,,0.00,VWS V14.01,2013-08-27 14:12:00,
2013-08-27 09:15:00,76.1,61.2,29.75,SSW,205,9.0,12.0,60,0.00,,,0.00,VWS V14.01,2013-08-27 14:15:00,
2013-08-27 09:17:00,76.0,61.1,29.75,SSW,213,10.0,12.0,60,0.00,,,0.00,VWS V14.01,2013-08-27 14:17:00,
2013-08-27 09:22:00,76.7,60.8,29.75,SSW,206,10.0,17.0,58,0.00,,,0.00,VWS V14.01,2013-08-27 14:22:00,
2013-08-27 09:27:00,77.0,60.6,29.75,SW,229,10.0,17.0,57,0.00,,,0.00,VWS V14.01,2013-08-27 14:27:00,
2013-08-27 09:30:00,77.7,59.8,29.75,SSW,206,10.0,17.0,54,0.00,,,0.00,VWS V14.01,2013-08-27 14:30:00,
2013-08-27 09:32:00,77.6,59.7,29.75,SSW,213,10.0,17.0,54,0.00,,,0.00,VWS V14.01,2013-08-27 14:32:00,
2013-08-27 09:37:00,78.1,59.1,29.75,South,189,11.0,13.0,52,0.00,,,0.00,VWS V14.01,2013-08-27 14:37:00,
2013-08-27 09:42:00,78.3,59.8,29.75,WSW,237,10.0,14.0,53,0.00,,,0.00,VWS V14.01,2013-08-27 14:42:00,
2013-08-27 09:45:00,78.8,59.7,29.75,SW,227,12.0,14.0,52,0.00,,,0.00,VWS V14.01,2013-08-27 14:45:00,
2013-08-27 09:47:00,78.6,59.5,29.75,SW,215,10.0,14.0,52,0.00,,,0.00,VWS V14.01,2013-08-27 14:47:00,
2013-08-27 09:52:00,78.8,59.7,29.75,SW,216,10.0,17.0,52,0.00,,,0.00,VWS V14.01,2013-08-27 14:52:00,
2013-08-27 09:57:00,79.0,59.9,29.75,SSW,199,10.0,17.0,52,0.00,,,0.00,VWS V14.01,2013-08-27 14:57:00,
2013-08-27 10:00:00,79.4,59.7,29.75,SW,233,10.0,17.0,51,0.00,,,0.00,VWS V14.01,2013-08-27 15:00:00,
2013-08-27 10:02:00,79.4,59.2,29.75,SW,226,12.0,17.0,50,0.00,,,0.00,VWS V14.01,2013-08-27 15:02:00,
2013-08-27 10:07:00,79.6,59.3,29.75,SW,219,10.0,17.0,50,0.00,,,0.00,VWS V14.01,2013-08-27 15:07:00,
2013-08-27 10:11:00,79.8,59.0,29.75,SW,230,16.0,17.0,49,0.00,,,0.00,VWS V14.01,2013-08-27 15:11:00,
2013-08-27 10:15:00,80.1,59.8,29.75,SSW,212,11.0,17.0,50,0.00,,,0.00,VWS V14.01,2013-08-27 15:15:00,
2013-08-27 10:16:00,80.1,60.4,29.75,WSW,237,10.0,17.0,51,0.00,,,0.00,VWS V14.01,2013-08-27 15:16:00,
2013-08-27 10:21:00,80.7,60.9,29.75,SSW,210,11.0,14.0,51,0.00,,,0.00,VWS V14.01,2013-08-27 15:21:00,
2013-08-27 10:26:00,80.7,59.8,29.75,SSW,210,10.0,14.0,49,0.00,,,0.00,VWS V14.01,2013-08-27 15:26:00,
2013-08-27 10:30:00,80.9,60.5,29.74,SSW,196,12.0,14.0,50,0.00,,,0.00,VWS V14.01,2013-08-27 15:30:00,
2013-08-27 10:31:00,80.9,60.0,29.75,South,189,8.0,14.0,49,0.00,,,0.00,VWS V14.01,2013-08-27 15:31:00,
2013-08-27 10:36:00,81.1,60.2,29.74,SSW,202,8.0,12.0,49,0.00,,,0.00,VWS V14.01,2013-08-27 15:36:00,
2013-08-27 10:41:00,81.1,60.2,29.74,South,182,6.0,12.0,49,0.00,,,0.00,VWS V14.01,2013-08-27 15:41:00,
2013-08-27 10:45:00,82.0,61.0,29.74,South,169,7.0,12.0,49,0.00,,,0.00,VWS V14.01,2013-08-27 15:45:00,
2013-08-27 10:46:00,81.8,59.6,29.74,SSW,198,5.0,12.0,47,0.00,,,0.00,VWS V14.01,2013-08-27 15:46:00,
2013-08-27 10:51:00,82.2,58.8,29.74,SSW,200,10.0,14.0,45,0.00,,,0.00,VWS V14.01,2013-08-27 15:51:00,
2013-08-27 10:56:00,82.4,59.6,29.74,SW,227,7.0,14.0,46,0.00,,,0.00,VWS V14.01,2013-08-27 15:56:00,
2013-08-27 11:00:00,82.8,59.3,29.75,SSW,210,6.0,14.0,45,0.00,,,0.00,VWS V14.01,2013-08-27 16:00:00,
2013-08-27 11:01:00,82.8,59.9,29.74,SW,215,6.0,14.0,46,0.00,,,0.00,VWS V14.01,2013-08-27 16:01:00,
2013-08-27 11:07:00,83.0,61.3,29.75,SW,222,5.0,10.0,48,0.00,,,0.00,VWS V14.01,2013-08-27 16:07:00,
2013-08-27 11:11:00,83.4,60.5,29.75,SSW,192,6.0,11.0,46,0.00,,,0.00,VWS V14.01,2013-08-27 16:11:00,
2013-08-27 11:15:00,83.8,61.4,29.75,South,188,8.0,11.0,47,0.00,,,0.00,VWS V14.01,2013-08-27 16:15:00,
2013-08-27 11:16:00,83.8,60.2,29.75,SSW,209,4.0,11.0,45,0.00,,,0.00,VWS V14.01,2013-08-27 16:16:00,
2013-08-27 11:21:00,84.0,61.0,29.75,SW,215,5.0,10.0,46,0.00,,,0.00,VWS V14.01,2013-08-27 16:21:00,
2013-08-27 11:26:00,84.3,60.0,29.75,South,191,7.0,10.0,44,0.00,,,0.00,VWS V14.01,2013-08-27 16:26:00,
2013-08-27 11:30:00,84.9,61.2,29.74,SSW,210,9.0,10.0,45,0.00,,,0.00,VWS V14.01,2013-08-27 16:30:00,
2013-08-27 11:31:00,84.9,61.2,29.75,SSW,209,3.0,10.0,45,0.00,,,0.00,VWS V14.01,2013-08-27 16:31:00,
2013-08-27 11:36:00,85.3,60.9,29.74,South,189,5.0,9.0,44,0.00,,,0.00,VWS V14.01,2013-08-27 16:36:00,
2013-08-27 11:41:00,85.7,60.7,29.74,South,191,7.0,9.0,43,0.00,,,0.00,VWS V14.01,2013-08-27 16:41:00,
2013-08-27 11:45:00,86.1,61.0,29.74,SSW,199,1.0,9.0,43,0.00,,,0.00,VWS V14.01,2013-08-27 16:45:00,
2013-08-27 11:46:00,86.1,59.7,29.74,SSW,200,4.0,9.0,41,0.00,,,0.00,VWS V14.01,2013-08-27 16:46:00,
2013-08-27 11:51:00,86.5,60.0,29.74,SSW,193,5.0,10.0,41,0.00,,,0.00,VWS V14.01,2013-08-27 16:51:00,
2013-08-27 11:56:00,87.0,59.8,29.74,South,178,5.0,10.0,40,0.00,,,0.00,VWS V14.01,2013-08-27 16:56:00,
2013-08-27 12:00:00,87.6,59.6,29.73,SSW,203,5.0,10.0,39,0.00,,,0.00,VWS V14.01,2013-08-27 17:00:00,
2013-08-27 12:01:00,87.6,59.6,29.74,SW,216,5.0,10.0,39,0.00,,,0.00,VWS V14.01,2013-08-27 17:01:00,
2013-08-27 12:06:00,88.0,60.0,29.73,SSW,202,7.0,11.0,39,0.00,,,0.00,VWS V14.01,2013-08-27 17:06:00,
2013-08-27 12:12:00,88.4,60.3,29.73,SSW,203,1.0,11.0,39,0.00,,,0.00,VWS V14.01,2013-08-27 17:12:00,
2013-08-27 12:15:00,89.0,59.4,29.73,South,186,1.0,11.0,37,0.00,,,0.00,VWS V14.01,2013-08-27 17:15:00,
2013-08-27 12:16:00,88.8,59.9,29.73,SSE,168,2.0,11.0,38,0.00,,,0.00,VWS V14.01,2013-08-27 17:16:00,
2013-08-27 12:21:00,89.5,58.3,29.73,South,176,3.0,7.0,35,0.00,,,0.00,VWS V14.01,2013-08-27 17:21:00,
2013-08-27 12:27:00,89.9,57.8,29.73,South,181,2.0,10.0,34,0.00,,,0.00,VWS V14.01,2013-08-27 17:27:00,
2013-08-27 12:34:00,90.1,58.0,29.73,South,182,8.0,10.0,34,0.00,,,0.00,VWS V14.01,2013-08-27 17:34:00,
2013-08-27 12:39:00,91.2,56.4,29.73,South,178,6.0,9.0,31,0.00,,,0.00,VWS V14.01,2013-08-27 17:39:00,
2013-08-27 12:44:00,91.8,56.0,29.73,South,175,6.0,11.0,30,0.00,,,0.00,VWS V14.01,2013-08-27 17:44:00,
2013-08-27 12:49:00,92.3,55.5,29.72,South,184,7.0,12.0,29,0.00,,,0.00,VWS V14.01,2013-08-27 17:49:00,
2013-08-27 12:54:00,92.9,56.0,29.72,South,182,10.0,14.0,29,0.00,,,0.00,VWS V14.01,2013-08-27 17:54:00,
2013-08-27 12:59:00,92.9,55.0,29.72,SSW,205,14.0,17.0,28,0.00,,,0.00,VWS V14.01,2013-08-27 17:59:00,
2013-08-27 13:04:00,93.6,55.6,29.72,SW,215,7.0,12.0,28,0.00,,,0.00,VWS V14.01,2013-08-27 18:04:00,
2013-08-27 13:09:00,94.0,55.0,29.72,SSW,195,7.0,16.0,27,0.00,,,0.00,VWS V14.01,2013-08-27 18:09:00,
2013-08-27 13:14:00,94.5,55.4,29.72,SSW,202,12.0,16.0,27,0.00,,,0.00,VWS V14.01,2013-08-27 18:14:00,
2013-08-27 13:19:00,94.9,55.7,29.71,SSW,202,12.0,14.0,27,0.00,,,0.00,VWS V14.01,2013-08-27 18:19:00,
2013-08-27 13:24:00,94.9,54.7,29.71,SW,227,14.0,14.0,26,0.00,,,0.00,VWS V14.01,2013-08-27 18:24:00,
2013-08-27 13:29:00,95.4,54.0,29.71,SW,215,12.0,14.0,25,0.00,,,0.00,VWS V14.01,2013-08-27 18:29:00,
2013-08-27 13:34:00,95.6,56.3,29.71,South,191,2.0,12.0,27,0.00,,,0.00,VWS V14.01,2013-08-27 18:34:00,
2013-08-27 13:39:00,96.1,55.7,29.71,SSW,193,7.0,16.0,26,0.00,,,0.00,VWS V14.01,2013-08-27 18:39:00,
2013-08-27 13:44:00,96.6,53.9,29.71,SSW,193,6.0,16.0,24,0.00,,,0.00,VWS V14.01,2013-08-27 18:44:00,
2013-08-27 13:49:00,96.6,55.0,29.70,South,189,6.0,10.0,25,0.00,,,0.00,VWS V14.01,2013-08-27 18:49:00,
2013-08-27 13:54:00,97.1,55.5,29.70,SSW,203,10.0,12.0,25,0.00,,,0.00,VWS V14.01,2013-08-27 18:54:00,
2013-08-27 13:59:00,96.8,54.1,29.70,WSW,237,10.0,14.0,24,0.00,,,0.00,VWS V14.01,2013-08-27 18:59:00,
2013-08-27 14:04:00,97.3,53.3,29.70,South,188,7.0,10.0,23,0.00,,,0.00,VWS V14.01,2013-08-27 19:04:00,
2013-08-27 14:09:00,97.3,53.3,29.70,South,182,9.0,13.0,23,0.00,,,0.00,VWS V14.01,2013-08-27 19:09:00,
2013-08-27 14:14:00,97.8,52.5,29.70,SSW,195,10.0,14.0,22,0.00,,,0.00,VWS V14.01,2013-08-27 19:14:00,
2013-08-27 14:19:00,98.0,51.5,29.70,South,185,7.0,14.0,21,0.00,,,0.00,VWS V14.01,2013-08-27 19:19:00,
2013-08-27 14:24:00,98.0,51.5,29.70,SSW,193,7.0,14.0,21,0.00,,,0.00,VWS V14.01,2013-08-27 19:24:00,
2013-08-27 14:29:00,98.0,50.1,29.70,South,189,7.0,14.0,20,0.00,,,0.00,VWS V14.01,2013-08-27 19:29:00,
2013-08-27 14:34:00,98.0,50.1,29.69,SSW,205,12.0,16.0,20,0.00,,,0.00,VWS V14.01,2013-08-27 19:34:00,
2013-08-27 14:39:00,98.0,51.5,29.69,SSW,199,8.0,16.0,21,0.00,,,0.00,VWS V14.01,2013-08-27 19:39:00,
2013-08-27 14:44:00,98.5,49.2,29.69,SSW,196,6.0,16.0,19,0.00,,,0.00,VWS V14.01,2013-08-27 19:44:00,
2013-08-27 14:49:00,99.0,52.3,29.69,SSW,205,7.0,10.0,21,0.00,,,0.00,VWS V14.01,2013-08-27 19:49:00,
2013-08-27 14:54:00,98.7,49.3,29.69,SSW,198,7.0,12.0,19,0.00,,,0.00,VWS V14.01,2013-08-27 19:54:00,
2013-08-27 14:59:00,98.5,49.2,29.69,South,188,7.0,14.0,19,0.00,,,0.00,VWS V14.01,2013-08-27 19:59:00,
2013-08-27 15:04:00,98.2,50.3,29.69,SSE,161,5.0,7.0,20,0.00,,,0.00,VWS V14.01,2013-08-27 20:04:00,
2013-08-27 15:09:00,98.7,50.7,29.69,SSW,202,12.0,13.0,20,0.00,,,0.00,VWS V14.01,2013-08-27 20:09:00,
2013-08-27 15:14:00,98.7,47.9,29.69,South,191,5.0,14.0,18,0.00,,,0.00,VWS V14.01,2013-08-27 20:14:00,
2013-08-27 15:19:00,98.2,48.9,29.68,South,185,10.0,16.0,19,0.00,,,0.00,VWS V14.01,2013-08-27 20:19:00,
2013-08-27 15:24:00,98.5,47.7,29.68,SSW,212,12.0,18.0,18,0.00,,,0.00,VWS V14.01,2013-08-27 20:24:00,
2013-08-27 15:29:00,98.2,48.9,29.68,SSW,213,12.0,18.0,19,0.00,,,0.00,VWS V14.01,2013-08-27 20:29:00,
2013-08-27 15:34:00,98.2,48.9,29.69,WSW,239,8.0,13.0,19,0.00,,,0.00,VWS V14.01,2013-08-27 20:34:00,
2013-08-27 15:39:00,98.2,48.9,29.69,South,182,7.0,13.0,19,0.00,,,0.00,VWS V14.01,2013-08-27 20:39:00,
2013-08-27 15:44:00,98.5,51.9,29.69,South,169,4.0,13.0,21,0.00,,,0.00,VWS V14.01,2013-08-27 20:44:00,
2013-08-27 15:49:00,98.7,50.7,29.68,SSW,205,12.0,12.0,20,0.00,,,0.00,VWS V14.01,2013-08-27 20:49:00,
2013-08-27 15:54:00,98.5,47.7,29.68,South,189,10.0,17.0,18,0.00,,,0.00,VWS V14.01,2013-08-27 20:54:00,
2013-08-27 15:59:00,98.5,49.2,29.68,SSW,199,7.0,17.0,19,0.00,,,0.00,VWS V14.01,2013-08-27 20:59:00,
2013-08-27 16:04:00,98.5,50.5,29.67,SSW,199,11.0,14.0,20,0.00,,,0.00,VWS V14.01,2013-08-27 21:04:00,
2013-08-27 16:09:00,98.5,50.5,29.67,SSW,198,12.0,14.0,20,0.00,,,0.00,VWS V14.01,2013-08-27 21:09:00,
2013-08-27 16:14:00,98.5,49.2,29.67,SSW,196,5.0,14.0,19,0.00,,,0.00,VWS V14.01,2013-08-27 21:14:00,
2013-08-27 16:19:00,98.7,49.3,29.68,SW,215,5.0,10.0,19,0.00,,,0.00,VWS V14.01,2013-08-27 21:19:00,
2013-08-27 16:24:00,98.7,50.7,29.68,SSW,193,5.0,12.0,20,0.00,,,0.00,VWS V14.01,2013-08-27 21:24:00,
2013-08-27 16:29:00,98.5,50.5,29.68,South,181,10.0,12.0,20,0.00,,,0.00,VWS V14.01,2013-08-27 21:29:00,
2013-08-27 16:34:00,98.5,49.2,29.68,SSW,203,10.0,12.0,19,0.00,,,0.00,VWS V14.01,2013-08-27 21:34:00,
2013-08-27 16:39:00,98.5,50.5,29.68,SSW,205,6.0,12.0,20,0.00,,,0.00,VWS V14.01,2013-08-27 21:39:00,
2013-08-27 16:44:00,98.7,50.7,29.68,South,172,8.0,12.0,20,0.00,,,0.00,VWS V14.01,2013-08-27 21:44:00,
2013-08-27 16:49:00,98.7,50.7,29.68,SSW,192,10.0,12.0,20,0.00,,,0.00,VWS V14.01,2013-08-27 21:49:00,
2013-08-27 16:54:00,98.5,51.9,29.68,SSW,196,8.0,12.0,21,0.00,,,0.00,VWS V14.01,2013-08-27 21:54:00,
2013-08-27 16:59:00,98.5,50.5,29.68,South,181,6.0,12.0,20,0.00,,,0.00,VWS V14.01,2013-08-27 21:59:00,
2013-08-27 17:04:00,98.5,49.2,29.67,SW,234,7.0,14.0,19,0.00,,,0.00,VWS V14.01,2013-08-27 22:04:00,
2013-08-27 17:09:00,98.5,51.9,29.67,SSW,210,7.0,14.0,21,0.00,,,0.00,VWS V14.01,2013-08-27 22:09:00,
2013-08-27 17:14:00,98.5,51.9,29.67,South,191,7.0,14.0,21,0.00,,,0.00,VWS V14.01,2013-08-27 22:14:00,
2013-08-27 17:19:00,98.5,49.2,29.68,South,188,11.0,11.0,19,0.00,,,0.00,VWS V14.01,2013-08-27 22:19:00,
2013-08-27 17:24:00,98.2,48.9,29.68,SSW,205,5.0,11.0,19,0.00,,,0.00,VWS V14.01,2013-08-27 22:24:00,
2013-08-27 17:29:00,98.2,50.3,29.68,SSW,199,7.0,11.0,20,0.00,,,0.00,VWS V14.01,2013-08-27 22:29:00,
2013-08-27 17:34:00,98.0,51.5,29.68,SSW,198,7.0,13.0,21,0.00,,,0.00,VWS V14.01,2013-08-27 22:34:00,
2013-08-27 17:39:00,98.0,52.7,29.68,SSW,195,5.0,13.0,22,0.00,,,0.00,VWS V14.01,2013-08-27 22:39:00,
2013-08-27 17:44:00,98.0,50.1,29.68,SSW,192,8.0,13.0,20,0.00,,,0.00,VWS V14.01,2013-08-27 22:44:00,
2013-08-27 17:49:00,97.8,51.3,29.67,SSW,198,5.0,9.0,21,0.00,,,0.00,VWS V14.01,2013-08-27 22:49:00,
2013-08-27 17:54:00,97.8,50.0,29.67,SSE,168,5.0,11.0,20,0.00,,,0.00,VWS V14.01,2013-08-27 22:54:00,
2013-08-27 17:59:00,97.8,50.0,29.67,South,189,5.0,11.0,20,0.00,,,0.00,VWS V14.01,2013-08-27 22:59:00,
2013-08-27 18:04:00,97.8,51.3,29.67,SSW,192,10.0,10.0,21,0.00,,,0.00,VWS V14.01,2013-08-27 23:04:00,
2013-08-27 18:09:00,97.5,52.3,29.67,SSW,193,7.0,10.0,22,0.00,,,0.00,VWS V14.01,2013-08-27 23:09:00,
2013-08-27 18:14:00,97.3,49.6,29.67,SSW,202,7.0,10.0,20,0.00,,,0.00,VWS V14.01,2013-08-27 23:14:00,
2013-08-27 18:19:00,97.3,52.1,29.68,SSW,199,7.0,7.0,22,0.00,,,0.00,VWS V14.01,2013-08-27 23:19:00,
2013-08-27 18:24:00,97.1,50.7,29.68,SSW,193,5.0,8.0,21,0.00,,,0.00,VWS V14.01,2013-08-27 23:24:00,
2013-08-27 18:29:00,96.8,50.5,29.68,South,175,5.0,8.0,21,0.00,,,0.00,VWS V14.01,2013-08-27 23:29:00,
2013-08-27 18:34:00,96.6,49.0,29.68,SSW,196,7.0,11.0,20,0.00,,,0.00,VWS V14.01,2013-08-27 23:34:00,
2013-08-27 18:39:00,96.6,50.3,29.68,South,184,6.0,11.0,21,0.00,,,0.00,VWS V14.01,2013-08-27 23:39:00,
2013-08-27 18:44:00,96.3,51.3,29.68,South,185,5.0,11.0,22,0.00,,,0.00,VWS V14.01,2013-08-27 23:44:00,
2013-08-27 18:49:00,96.1,49.9,29.68,South,185,3.0,7.0,21,0.00,,,0.00,VWS V14.01,2013-08-27 23:49:00,
2013-08-27 18:54:00,95.9,51.0,29.68,South,179,5.0,7.0,22,0.00,,,0.00,VWS V14.01,2013-08-27 23:54:00,
2013-08-27 18:59:00,95.6,49.5,29.68,South,179,2.0,7.0,21,0.00,,,0.00,VWS V14.01,2013-08-27 23:59:00,
2013-08-27 19:04:00,95.4,49.3,29.68,South,181,2.0,7.0,21,0.00,,,0.00,VWS V14.01,2013-08-28 00:04:00,
2013-08-27 19:09:00,94.9,50.2,29.68,South,181,2.0,7.0,22,0.00,,,0.00,VWS V14.01,2013-08-28 00:09:00,
2013-08-27 19:14:00,94.7,51.2,29.68,South,181,5.0,7.0,23,0.00,,,0.00,VWS V14.01,2013-08-28 00:14:00,
2013-08-27 19:19:00,94.3,48.4,29.68,SSW,195,3.0,5.0,21,0.00,,,0.00,VWS V14.01,2013-08-28 00:19:00,
2013-08-27 19:24:00,93.8,50.4,29.68,SSW,195,2.0,7.0,23,0.00,,,0.00,VWS V14.01,2013-08-28 00:24:00,
2013-08-27 19:29:00,93.6,51.4,29.68,SSW,195,4.0,7.0,24,0.00,,,0.00,VWS V14.01,2013-08-28 00:29:00,
2013-08-27 19:35:00,93.2,51.1,29.68,South,172,0.0,3.0,24,0.00,,,0.00,VWS V14.01,2013-08-28 00:35:00,
2013-08-27 19:40:00,92.5,52.7,29.68,South,172,2.0,5.0,26,0.00,,,0.00,VWS V14.01,2013-08-28 00:40:00,
2013-08-27 19:45:00,92.1,52.3,29.68,South,172,0.0,5.0,26,0.00,,,0.00,VWS V14.01,2013-08-28 00:45:00,
2013-08-27 19:50:00,91.6,50.8,29.69,South,172,0.0,2.0,25,0.00,,,0.00,VWS V14.01,2013-08-28 00:50:00,
2013-08-27 19:55:00,91.2,52.6,29.69,South,172,0.0,2.0,27,0.00,,,0.00,VWS V14.01,2013-08-28 00:55:00,
2013-08-27 20:00:00,90.7,53.2,29.69,South,172,2.0,5.0,28,0.00,,,0.00,VWS V14.01,2013-08-28 01:00:00,
2013-08-27 20:05:00,90.1,52.6,29.69,South,172,2.0,3.0,28,0.00,,,0.00,VWS V14.01,2013-08-28 01:05:00,
2013-08-27 20:10:00,89.5,52.1,29.69,South,172,1.0,3.0,28,0.00,,,0.00,VWS V14.01,2013-08-28 01:10:00,
2013-08-27 20:15:00,89.0,53.6,29.69,South,172,1.0,3.0,30,0.00,,,0.00,VWS V14.01,2013-08-28 01:15:00,
2013-08-27 20:20:00,88.4,54.0,29.69,South,172,4.0,5.0,31,0.00,,,0.00,VWS V14.01,2013-08-28 01:20:00,
2013-08-27 20:25:00,88.0,53.6,29.69,South,172,3.0,5.0,31,0.00,,,0.00,VWS V14.01,2013-08-28 01:25:00,
2013-08-27 20:30:00,87.6,54.1,29.69,South,172,2.0,5.0,32,0.00,,,0.00,VWS V14.01,2013-08-28 01:30:00,
2013-08-27 20:35:00,87.0,53.6,29.70,South,172,2.0,5.0,32,0.00,,,0.00,VWS V14.01,2013-08-28 01:35:00,
2013-08-27 20:40:00,86.5,55.6,29.70,South,172,5.0,5.0,35,0.00,,,0.00,VWS V14.01,2013-08-28 01:40:00,
2013-08-27 20:45:00,86.1,55.3,29.70,South,172,2.0,5.0,35,0.00,,,0.00,VWS V14.01,2013-08-28 01:45:00,
2013-08-27 20:50:00,85.7,54.9,29.70,South,172,3.0,5.0,35,0.00,,,0.00,VWS V14.01,2013-08-28 01:50:00,
2013-08-27 20:55:00,85.3,55.3,29.70,South,172,5.0,6.0,36,0.00,,,0.00,VWS V14.01,2013-08-28 01:55:00,
2013-08-27 21:00:00,84.9,55.0,29.70,South,172,5.0,6.0,36,0.00,,,0.00,VWS V14.01,2013-08-28 02:00:00,
2013-08-27 21:05:00,84.7,55.6,29.71,South,172,3.0,5.0,37,0.00,,,0.00,VWS V14.01,2013-08-28 02:05:00,
2013-08-27 21:10:00,84.5,54.6,29.71,South,172,5.0,5.0,36,0.00,,,0.00,VWS V14.01,2013-08-28 02:10:00,
2013-08-27 21:15:00,84.3,55.2,29.71,South,172,4.0,6.0,37,0.00,,,0.00,VWS V14.01,2013-08-28 02:15:00,
2013-08-27 21:20:00,84.1,54.3,29.71,South,172,2.0,5.0,36,0.00,,,0.00,VWS V14.01,2013-08-28 02:20:00,
2013-08-27 21:25:00,84.0,55.7,29.71,South,172,2.0,6.0,38,0.00,,,0.00,VWS V14.01,2013-08-28 02:25:00,
2013-08-27 21:30:00,84.0,55.0,29.71,South,172,5.0,6.0,37,0.00,,,0.00,VWS V14.01,2013-08-28 02:30:00,
2013-08-27 21:35:00,83.8,55.5,29.71,South,172,5.0,7.0,38,0.00,,,0.00,VWS V14.01,2013-08-28 02:35:00,
2013-08-27 21:40:00,83.8,54.8,29.71,South,172,2.0,7.0,37,0.00,,,0.00,VWS V14.01,2013-08-28 02:40:00,
2013-08-27 21:45:00,83.6,54.6,29.71,South,191,7.0,7.0,37,0.00,,,0.00,VWS V14.01,2013-08-28 02:45:00,
2013-08-27 21:50:00,83.6,56.0,29.71,South,181,4.0,7.0,39,0.00,,,0.00,VWS V14.01,2013-08-28 02:50:00,
2013-08-27 21:55:00,83.2,57.1,29.71,South,181,5.0,7.0,41,0.00,,,0.00,VWS V14.01,2013-08-28 02:55:00,
2013-08-27 22:00:00,83.2,56.4,29.71,SSW,198,5.0,8.0,40,0.00,,,0.00,VWS V14.01,2013-08-28 03:00:00,
2013-08-27 22:05:00,83.0,56.9,29.72,South,189,7.0,10.0,41,0.00,,,0.00,VWS V14.01,2013-08-28 03:05:00,
2013-08-27 22:10:00,83.0,56.2,29.72,South,175,6.0,10.0,40,0.00,,,0.00,VWS V14.01,2013-08-28 03:10:00,
2013-08-27 22:15:00,82.8,56.0,29.72,South,172,7.0,10.0,40,0.00,,,0.00,VWS V14.01,2013-08-28 03:15:00,
2013-08-27 22:20:00,82.8,56.0,29.71,South,182,5.0,7.0,40,0.00,,,0.00,VWS V14.01,2013-08-28 03:20:00,
2013-08-27 22:25:00,82.8,56.0,29.71,South,179,7.0,7.0,40,0.00,,,0.00,VWS V14.01,2013-08-28 03:25:00,
2013-08-27 22:30:00,82.8,57.4,29.71,South,189,5.0,10.0,42,0.00,,,0.00,VWS V14.01,2013-08-28 03:30:00,
2013-08-27 22:35:00,83.0,56.9,29.71,SSW,192,10.0,11.0,41,0.00,,,0.00,VWS V14.01,2013-08-28 03:35:00,
2013-08-27 22:40:00,83.2,55.0,29.71,SSW,195,7.0,12.0,38,0.00,,,0.00,VWS V14.01,2013-08-28 03:40:00,
2013-08-27 22:45:00,83.2,55.7,29.71,South,186,7.0,12.0,39,0.00,,,0.00,VWS V14.01,2013-08-28 03:45:00,
2013-08-27 22:50:00,83.2,55.7,29.72,SSW,198,5.0,11.0,39,0.00,,,0.00,VWS V14.01,2013-08-28 03:50:00,
2013-08-27 22:55:00,83.0,55.5,29.72,SSW,196,11.0,11.0,39,0.00,,,0.00,VWS V14.01,2013-08-28 03:55:00,
2013-08-27 23:00:00,82.8,54.6,29.72,South,189,10.0,12.0,38,0.00,,,0.00,VWS V14.01,2013-08-28 04:00:00,
2013-08-27 23:01:00,82.8,54.6,29.72,South,184,7.0,12.0,38,0.00,,,0.00,VWS V14.01,2013-08-28 04:01:00,
2013-08-27 23:06:00,82.8,56.0,29.72,South,191,7.0,11.0,40,0.00,,,0.00,VWS V14.01,2013-08-28 04:06:00,
2013-08-27 23:11:00,82.6,55.9,29.72,South,188,10.0,12.0,40,0.00,,,0.00,VWS V14.01,2013-08-28 04:11:00,
2013-08-27 23:16:00,82.4,55.0,29.72,South,188,7.0,12.0,39,0.00,,,0.00,VWS V14.01,2013-08-28 04:16:00,
2013-08-27 23:18:00,82.4,56.4,29.71,South,186,7.0,12.0,41,0.00,,,0.00,VWS V14.01,2013-08-28 04:18:00,
2013-08-27 23:23:00,82.2,55.5,29.71,South,182,6.0,11.0,40,0.00,,,0.00,VWS V14.01,2013-08-28 04:23:00,
2013-08-27 23:28:00,82.0,55.3,29.71,SSW,202,7.0,12.0,40,0.00,,,0.00,VWS V14.01,2013-08-28 04:28:00,
2013-08-27 23:33:00,81.8,55.8,29.72,SSW,196,5.0,12.0,41,0.00,,,0.00,VWS V14.01,2013-08-28 04:33:00,
2013-08-27 23:38:00,81.6,55.6,29.72,SSW,193,5.0,13.0,41,0.00,,,0.00,VWS V14.01,2013-08-28 04:38:00,
2013-08-27 23:43:00,81.4,56.8,29.72,South,185,4.0,13.0,43,0.00,,,0.00,VWS V14.01,2013-08-28 04:43:00,
2013-08-27 23:48:00,81.1,56.5,29.72,South,185,2.0,13.0,43,0.00,,,0.00,VWS V14.01,2013-08-28 04:48:00,
2013-08-27 23:53:00,80.5,57.2,29.72,South,185,4.0,5.0,45,0.00,,,0.00,VWS V14.01,2013-08-28 04:53:00,
2013-08-27 23:58:00,79.8,57.2,29.72,South,185,3.0,6.0,46,0.00,,,0.00,VWS V14.01,2013-08-28 04:58:00,